Location: Newark
(21.1200°N, 73.4000°E)
Time: 16:43:53
(UTC+00:00)

SR - Visible Passes

Search period start: 28 January 2020 00:00
Search period end: 07 February 2020 00:00
Orbit: 574 x 882 km, 66.7° (Epoch: 27 January)

Date Brightness Start Highest point End Pass type
(mag) Time Alt. Az. Time Alt. Az. Time Alt. Az.
28 Jan ? 14:47:16 10° SSE 14:47:30 11° SSE 14:47:30 11° SSE visible
29 Jan ? 01:21:39 10° N 01:25:40 22° ENE 01:29:25 10° ESE visible
29 Jan ? 15:38:27 10° SSW 15:39:49 18° SW 15:39:49 18° SW visible
30 Jan ? 14:48:56 10° S 14:52:44 42° SSE 14:52:44 42° SSE visible
31 Jan ? 14:00:26 10° SSE 14:04:58 25° ESE 14:05:44 25° E visible
31 Jan ? 15:41:51 10° SW 15:45:14 27° W 15:45:14 27° W visible
01 Feb ? 00:34:51 10° NNE 00:38:39 21° ENE 00:42:14 10° ESE visible
01 Feb ? 13:14:59 10° ESE 13:15:39 10° ESE 13:16:20 10° E visible
01 Feb ? 14:51:27 10° SSW 14:57:03 68° WNW 14:58:18 53° N visible
02 Feb ? 14:02:00 10° S 14:07:28 54° ESE 14:11:23 20° NE visible
02 Feb ? 15:46:27 10° W 15:49:49 16° WNW 15:50:53 15° NW visible
03 Feb ? 00:36:38 10° N 00:41:31 45° ENE 00:45:59 10° SE visible
03 Feb ? 13:13:37 10° SSE 13:18:03 24° ESE 13:22:35 10° NE visible
03 Feb ? 14:54:46 10° SW 14:59:52 33° WNW 15:03:57 15° N visible
03 Feb ? 23:48:03 10° NNE 23:51:38 19° ENE 23:55:01 10° ESE visible
04 Feb ? 14:04:27 10° SSW 14:10:06 73° WNW 14:16:01 10° NNE visible
05 Feb ? 00:39:09 10° NNW 00:44:12 76° WSW 00:48:46 10° SSE visible
05 Feb ? 13:15:05 10° S 13:20:31 50° ESE 13:26:12 10° NE visible
05 Feb ? 14:59:12 10° W 15:02:49 17° WNW 15:06:31 10° NNW visible
05 Feb ? 23:51:36 21° N 23:54:31 41° ENE 23:58:54 10° SE visible
06 Feb ? 14:07:40 10° SW 14:12:53 36° WNW 14:18:17 10° N visible
06 Feb ? 23:04:33 17° ENE 23:04:37 17° ENE 23:07:47 10° ESE visible
